| time (UTC) | temp F | wind direction | speed MPH | gust MPH | rain 1hr in | rain 24hr in | rain mn in | humidity % | barometer mb |
| 20260906014623 | -44 | 235 | 2.0 | 12.0 | 0.00 | 0.00 | 0.00 | 1012.2 | |
| 20260906013101 | -43 | 251 | 2.0 | 11.0 | 0.00 | 0.00 | 0.00 | 1012.1 | |
| 20260906011559 | -43 | 261 | 4.0 | 10.0 | 0.00 | 0.00 | 0.00 | 1012.0 | |
| 20260906010106 | -43 | 246 | 3.0 | 10.0 | 0.00 | 0.00 | 0.00 | 1012.1 | |
| 20260906004613 | -43 | 236 | 5.0 | 12.0 | 0.00 | 0.00 | 0.00 | 1012.0 | |
| 20260906003057 | -43 | 214 | 4.0 | 9.0 | 0.00 | 0.00 | 0.00 | 1012.0 | |
| 20260906001605 | -43 | 248 | 4.0 | 10.0 | 0.00 | 0.00 | 0.00 | 1012.0 | |
| 20260906000110 | -43 | 250 | 3.0 | 8.0 | 0.00 | 0.00 | 0.00 | 1011.9 | |
| 20260905234602 | -43 | 203 | 3.0 | 7.0 | 0.00 | 0.00 | 0.00 | 1011.9 | |
| 20260905233059 | -42 | 221 | 3.0 | 7.0 | 0.00 | 0.00 | 0.00 | 1011.9 | |
| 20260905231555 | -42 | 224 | 4.0 | 7.0 | 0.00 | 0.00 | 0.00 | 1011.9 | |
| 20260905230103 | -41 | 227 | 2.0 | 11.0 | 0.00 | 0.00 | 0.00 | 1012.0 | |
| 20260905224608 | -41 | 220 | 4.0 | 11.0 | 0.00 | 0.00 | 0.00 | 1012.1 | |
| 20260905223101 | -41 | 157 | 3.0 | 9.0 | 0.00 | 0.00 | 0.00 | 1012.1 | |
| 20260905221602 | -41 | 209 | 4.0 | 11.0 | 0.00 | 0.00 | 0.00 | 1012.2 | |
| 20260905220118 | -41 | 236 | 7.0 | 12.0 | 0.00 | 0.00 | 0.00 | 1012.2 | |
| 20260905214605 | -41 | 251 | 4.0 | 12.0 | 0.00 | 0.00 | 0.00 | 1012.3 | |
| 20260905213104 | -41 | 180 | 6.0 | 10.0 | 0.00 | 0.00 | 0.00 | 1012.5 | |
| 20260905211610 | -41 | 217 | 6.0 | 15.0 | 0.00 | 0.00 | 0.00 | 1012.4 | |
| 20260905204555 | -40 | 178 | 7.0 | 14.0 | 0.00 | 0.00 | 0.00 | 1012.2 | |
| 20260905203102 | -40 | 182 | 7.0 | 17.0 | 0.00 | 0.00 | 0.00 | 1012.3 | |
| 20260905201559 | -40 | 291 | 8.0 | 15.0 | 0.00 | 0.00 | 0.00 | 1012.6 | |
| 20260905200101 | -41 | 247 | 5.0 | 17.0 | 0.00 | 0.00 | 0.00 | 1012.7 | |
| 20260905194558 | -41 | 242 | 7.0 | 13.0 | 0.00 | 0.00 | 0.00 | 1012.9 | |
| 20260905193139 | -41 | 180 | 6.0 | 14.0 | 0.00 | 0.00 | 0.00 | 1013.3 | |
| 20260905191603 | -40 | 157 | 7.0 | 13.0 | 0.00 | 0.00 | 0.00 | 1013.5 | |
| 20260905190114 | -41 | 202 | 8.0 | 16.0 | 0.00 | 0.00 | 0.00 | 1013.5 | |
| 20260905184603 | -39 | 198 | 5.0 | 12.0 | 0.00 | 0.00 | 0.00 | 1013.7 | |
| 20260905183112 | -40 | 180 | 6.0 | 15.0 | 0.00 | 0.00 | 0.00 | 1014.0 | |
| 20260905181605 | -39 | 180 | 6.0 | 14.0 | 0.00 | 0.00 | 0.00 | 1014.0 | |
| 20260905180059 | -40 | 171 | 6.0 | 15.0 | 0.00 | 0.00 | 0.00 | 1014.1 | |
| 20260905174555 | -40 | 213 | 8.0 | 15.0 | 0.00 | 0.00 | 0.00 | 1014.3 | |
| 20260905173059 | -40 | 200 | 6.0 | 12.0 | 0.00 | 0.00 | 0.00 | 1014.1 | |
| 20260905171603 | -40 | 225 | 4.0 | 13.0 | 0.00 | 0.00 | 0.00 | 1014.4 | |
| 20260905170104 | -41 | 208 | 5.0 | 12.0 | 0.00 | 0.00 | 0.00 | 1014.4 | |
| 20260905164607 | -41 | 238 | 7.0 | 14.0 | 0.00 | 0.01 | 0.00 | 1014.4 | |
| 20260905163058 | -41 | 175 | 7.0 | 14.0 | 0.00 | 0.01 | 0.00 | 1014.5 | |
| 20260905161605 | -41 | 239 | 5.0 | 12.0 | 0.00 | 0.01 | 0.00 | 1014.6 | |
| 20260905160124 | -41 | 318 | 2.0 | 13.0 | 0.00 | 0.01 | 0.00 | 1014.7 | |
| 20260905154604 | -41 | 237 | 5.0 | 13.0 | 0.00 | 0.01 | 0.00 | 1014.6 | |
| 20260905153112 | -42 | 227 | 6.0 | 12.0 | 0.00 | 0.01 | 0.00 | 1014.4 | |
| 20260905151609 | -42 | 248 | 3.0 | 9.0 | 0.00 | 0.01 | 0.00 | 1014.5 | |
| 20260905150104 | -42 | 284 | 3.0 | 13.0 | 0.00 | 0.01 | 0.00 | 1014.6 | |
| 20260905144600 | -42 | 196 | 2.0 | 9.0 | 0.00 | 0.05 | 0.00 | 1014.5 | |
| 20260905143107 | -42 | 252 | 4.0 | 9.0 | 0.00 | 0.05 | 0.00 | 1014.4 | |
| 20260905141559 | -42 | 233 | 2.0 | 8.0 | 0.00 | 0.05 | 0.00 | 1014.3 | |
| 20260905140110 | -43 | 232 | 4.0 | 8.0 | 0.00 | 0.05 | 0.00 | 1014.3 | |
| 20260905134605 | -42 | 167 | 1.0 | 7.0 | 0.00 | 0.07 | 0.00 | 1014.2 | |
| 20260905133107 | -42 | 0 | 0.0 | 0.0 | 0.00 | 0.07 | 0.00 | 1014.2 | |
| 20260905131608 | -43 | 0 | 0.0 | 1.0 | 0.00 | 0.07 | 0.00 | 1014.2 | |
| 20260905130115 | -44 | 0 | 0.0 | 2.0 | 0.00 | 0.07 | 0.00 | 1014.2 | |
| 20260905124600 | -45 | 0 | 0.0 | 2.0 | 0.00 | 0.07 | 0.00 | 1014.0 | |
| 20260905123102 | -46 | 0 | 0.0 | 2.0 | 0.00 | 0.07 | 0.00 | 1014.1 | |
| 20260905121555 | -46 | 0 | 0.0 | 0.0 | 0.00 | 0.07 | 0.00 | 1014.0 | |
| 20260905120113 | -46 | 0 | 0.0 | 0.0 | 0.00 | 0.07 | 0.00 | 1013.8 | |
| 20260905114559 | -47 | 0 | 0.0 | 0.0 | 0.00 | 0.07 | 0.00 | 1013.7 | |
| 20260905113104 | -47 | 0 | 0.0 | 0.0 | 0.00 | 0.07 | 0.00 | 1013.7 | |
| 20260905111608 | -47 | 0 | 0.0 | 0.0 | 0.00 | 0.07 | 0.00 | 1013.7 | |
| 20260905110101 | -47 | 0 | 0.0 | 0.0 | 0.00 | 0.07 | 0.00 | 1013.4 | |
| 20260905104557 | -47 | 0 | 0.0 | 0.0 | 0.00 | 0.07 | 0.00 | 1013.4 | |
| 20260905103056 | -47 | 0 | 0.0 | 2.0 | 0.00 | 0.07 | 0.00 | 1013.2 | |
| 20260905101602 | -47 | 0 | 0.0 | 2.0 | 0.00 | 0.07 | 0.00 | 1013.1 | |
| 20260905094600 | -46 | 346 | 0.0 | 2.0 | 0.00 | 0.07 | 0.00 | 1013.2 | |
| 20260905093055 | -46 | 0 | 0.0 | 2.0 | 0.00 | 0.07 | 0.00 | 1013.2 | |
| 20260905091608 | -46 | 0 | 0.0 | 2.0 | 0.00 | 0.07 | 0.00 | 1013.2 | |
| 20260905090057 | -45 | 0 | 0.0 | 1.0 | 0.00 | 0.07 | 0.00 | 1013.1 | |
| 20260905084617 | -45 | 212 | 0.0 | 5.0 | 0.00 | 0.07 | 0.00 | 1013.1 | |
| 20260905083059 | -45 | 188 | 0.0 | 4.0 | 0.00 | 0.07 | 0.00 | 1013.0 | |
| 20260905081603 | -45 | 196 | 0.0 | 4.0 | 0.00 | 0.07 | 0.00 | 1013.0 | |
| 20260905080059 | -46 | 148 | 0.0 | 2.0 | 0.00 | 0.07 | 0.00 | 1013.0 | |
| 20260905074605 | -46 | 0 | 0.0 | 2.0 | 0.00 | 0.07 | 0.00 | 1013.0 | |
| 20260905073107 | -46 | 148 | 0.0 | 4.0 | 0.00 | 0.07 | 0.00 | 1013.0 | |
| 20260905071559 | -46 | 0 | 0.0 | 2.0 | 0.00 | 0.07 | 0.00 | 1013.0 | |
| 20260905070106 | -46 | 0 | 0.0 | 0.0 | 0.00 | 0.07 | 0.00 | 1012.9 | |
| 20260905064555 | -46 | 0 | 0.0 | 0.0 | 0.00 | 0.07 | 0.00 | 1012.9 | |
| 20260905063054 | -46 | 0 | 0.0 | 3.0 | 0.00 | 0.07 | 0.00 | 1012.8 | |
| 20260905061610 | -46 | 0 | 0.0 | 0.0 | 0.00 | 0.07 | 0.00 | 1013.0 | |
| 20260905060105 | -47 | 0 | 0.0 | 0.0 | 0.00 | 0.07 | 0.00 | 1013.2 | |
| 20260905054557 | -47 | 0 | 0.0 | 0.0 | 0.00 | 0.09 | 0.00 | 1013.1 | |
| 20260905053135 | -47 | 0 | 0.0 | 0.0 | 0.00 | 0.09 | 0.00 | 1013.2 | |
| 20260905051559 | -47 | 0 | 0.0 | 0.0 | 0.00 | 0.09 | 0.00 | 1013.4 | |
| 20260905050105 | -46 | 0 | 0.0 | 0.0 | 0.00 | 0.09 | 0.00 | 1013.5 | |
| 20260905044558 | -47 | 0 | 0.0 | 1.0 | 0.00 | 0.20 | 0.09 | 1013.6 | |
| 20260905043055 | -46 | 0 | 0.0 | 1.0 | 0.00 | 0.20 | 0.09 | 1013.9 | |
| 20260905041553 | -47 | 0 | 0.0 | 2.0 | 0.00 | 0.20 | 0.09 | 1013.9 | |
| 20260905040057 | -46 | 0 | 0.0 | 0.0 | 0.00 | 0.20 | 0.09 | 1014.0 | |
| 20260905034553 | -46 | 0 | 0.0 | 0.0 | 0.00 | 0.20 | 0.09 | 1014.0 | |
| 20260905033059 | -46 | 0 | 0.0 | 0.0 | 0.00 | 0.20 | 0.09 | 1014.1 | |
| 20260905031602 | -46 | 0 | 0.0 | 2.0 | 0.00 | 0.20 | 0.09 | 1014.3 | |
| 20260905030056 | -46 | 0 | 0.0 | 2.0 | 0.00 | 0.20 | 0.09 | 1014.3 | |
| 20260905024623 | -46 | 89 | 1.0 | 4.0 | 0.00 | 0.20 | 0.09 | 1014.3 | |
| 20260905023122 | -46 | 0 | 0.0 | 3.0 | 0.00 | 0.20 | 0.09 | 1014.3 | |
| 20260905021602 | -46 | 134 | 0.0 | 2.0 | 0.00 | 0.20 | 0.09 | 1014.2 | |
| 20260905020106 | -46 | 0 | 0.0 | 0.0 | 0.00 | 0.20 | 0.09 | 1014.0 |